STARLINK-1748

Last updated on Fri Nov 06 2020 00:02:03 GMT+0000 (Coordinated Universal Time)

1 46570U 20070AQ 20310.74827550 -.00012823 00000-0 -13208-3 0 9990 2 46570 52.9877 291.0762 0001529 144.9128 215.1985 15.63192751 5607
UTC large
Height (km)
Speed (km/s)
/
Latitude / Longitude
Inclination (degrees)
Orbital Period (minutes)
Azimuth
Elevation
Range (km)
Doppler Factor

Next 0 passes for location: London (51.5072 / 0.1276)

Sorry there are no passes over London.